BADR-7 (ARABSAT-6B)

Last updated on Mon Sep 21 2026 00:02:59 GMT+0000 (Coordinated Universal Time)

1 41029U 15065B 26263.21122752 .00000141 00000+0 00000+0 0 9998 2 41029 0.0229 205.4591 0006515 14.8687 240.8304 1.00274386 39710
UTC large
Height (km)
Speed (km/s)
/
Latitude / Longitude
Inclination (degrees)
Orbital Period (minutes)
Azimuth
Elevation
Range (km)
Doppler Factor

Next 0 passes for location: London (51.5072 / 0.1276)

No passes found over London.
BADR-7 (ARABSAT-6B)